Вернуться в каталог

FENGYUN 1C DEB

LostSSO
NORAD 31778·DEBRIS·🇨🇳 China

Запущен May 10, 1999 с Taiyuan Satellite Launch Center

Loading…

Ближайшие Пролёты (ближайшие 24 часа)

TLE

УстаревшееSource: Space-Track

Эпоха: Jun 2, 2011, 02:14 UTC

1 31778U 99025CGD 11153.09374280  .00000128  00000-0  86129-4 0  9996
2 31778 099.3182 203.0446 0046715 078.1140 282.5735 14.00176789738242

Отслеживайте FENGYUN 1C DEB в реальном времени с AllMySat

Download on the App Store